EW9596 Weather Reports


Display with metric or nautical units.
time (UTC)temp
F
wind
direction
speed
MPH
gust
MPH
rain 1hr
in
rain 24hr
in
rain mn
in
humidity
%
barometer
mb
20260505052600 64 254 2.0 7.0 0.00 0.00 0.00 49 1006.8
20260505052100 64 156 2.0 8.0 0.00 0.00 0.00 49 1006.8
20260505051700 64 195 1.0 7.0 0.00 0.00 0.00 49 1006.7
20260505051058 64 184 1.0 8.0 0.00 0.00 0.00 49 1006.8
20260505050559 64 237 4.0 9.0 0.00 0.00 0.00 49 1006.8
20260505041602 64 298 2.0 5.0 0.00 0.00 0.00 49 1006.5
20260505041054 64 311 1.0 9.0 0.00 0.00 0.00 49 1006.6
20260505040554 64 23 1.0 10.0 0.00 0.00 0.00 49 1006.6
20260505040056 64 24 3.0 10.0 0.00 0.00 0.00 49 1006.6
20260505035551 64 15 1.0 9.0 0.00 0.00 0.00 49 1006.6
20260505035052 64 227 3.0 9.0 0.00 0.00 0.00 48 1006.6
20260505034552 64 138 1.0 7.0 0.00 0.00 0.00 48 1006.5
20260505034052 65 342 1.0 4.0 0.00 0.00 0.00 48 1006.7
20260505033552 65 160 1.0 5.0 0.00 0.00 0.00 48 1006.6
20260505033051 65 255 1.0 5.0 0.00 0.00 0.00 47 1006.7
20260505032551 65 261 1.0 5.0 0.00 0.00 0.00 47 1006.7
20260505032052 65 225 1.0 6.0 0.00 0.00 0.00 46 1006.7
20260505031552 65 101 1.0 5.0 0.00 0.00 0.00 46 1006.7
20260505031050 66 144 2.0 5.0 0.00 0.00 0.00 46 1006.7
20260505030551 66 290 1.0 6.0 0.00 0.00 0.00 46 1006.6
20260505030109 66 182 2.0 5.0 0.00 0.00 0.00 45 1006.7
20260505025550 66 333 1.0 5.0 0.00 0.00 0.00 45 1006.7
20260505025050 66 312 2.0 6.0 0.00 0.00 0.00 45 1006.8
20260505024553 66 138 0.0 10.0 0.00 0.00 0.00 44 1006.8
20260505024051 66 243 1.0 10.0 0.00 0.00 0.00 44 1006.8
20260505023549 66 201 1.0 10.0 0.00 0.00 0.00 44 1006.9
20260505023049 66 102 3.0 10.0 0.00 0.00 0.00 44 1006.9
20260505022549 66 231 1.0 9.0 0.00 0.00 0.00 44 1006.9
20260505022150 66 239 4.0 11.0 0.00 0.00 0.00 44 1006.8
20260505021550 66 82 3.0 11.0 0.00 0.00 0.00 44 1007.0
20260505021048 66 249 1.0 7.0 0.00 0.00 0.00 44 1007.0
20260505020548 66 327 2.0 7.0 0.00 0.00 0.00 43 1006.9
20260505020048 66 214 2.0 8.0 0.00 0.00 0.00 43 1006.9
20260505015548 66 196 2.0 5.0 0.00 0.00 0.00 43 1006.9
20260505015048 66 85 0.0 7.0 0.00 0.00 0.00 44 1006.9
20260505014603 66 110 3.0 7.0 0.00 0.00 0.00 43 1006.9
20260505014046 66 273 1.0 8.0 0.00 0.00 0.00 43 1006.8
20260505013548 67 309 1.0 4.0 0.00 0.00 0.00 43 1006.8
20260505013051 67 267 0.0 4.0 0.00 0.00 0.00 44 1006.7
20260505012546 67 259 1.0 6.0 0.00 0.00 0.00 43 1006.7
20260505012046 67 148 2.0 10.0 0.00 0.00 0.00 42 1006.6
20260505011546 67 250 4.0 10.0 0.00 0.00 0.00 41 1006.6
20260505011049 68 161 1.0 9.0 0.00 0.00 0.00 42 1006.5
20260505010546 68 182 0.0 9.0 0.00 0.00 0.00 41 1006.5
20260505010054 68 111 2.0 9.0 0.00 0.00 0.00 41 1006.5
20260505005549 68 291 2.0 4.0 0.00 0.00 0.00 40 1006.4
20260505005045 68 167 0.0 5.0 0.00 0.00 0.00 40 1006.4
20260505004550 68 5 1.0 9.0 0.00 0.00 0.00 40 1006.4
20260505004043 69 302 1.0 5.0 0.00 0.00 0.00 39 1006.4
20260505003544 69 227 0.0 8.0 0.00 0.00 0.00 39 1006.4
20260505003055 69 314 0.0 8.0 0.00 0.00 0.00 39 1006.4
20260505002544 69 201 2.0 5.0 0.00 0.00 0.00 39 1006.3
20260505002044 70 321 1.0 8.0 0.00 0.00 0.00 39 1006.2
20260505001545 70 240 2.0 9.0 0.00 0.00 0.00 38 1006.1
20260505001043 70 229 3.0 9.0 0.00 0.00 0.00 37 1006.1
20260505000543 70 252 2.0 5.0 0.00 0.00 0.00 38 1006.1
20260505000041 70 93 2.0 9.0 0.00 0.00 0.00 37 1006.1
20260504235545 71 215 3.0 9.0 0.00 0.00 0.00 37 1006.0
20260504235142 71 187 1.0 10.0 0.00 0.00 0.00 36 1006.1
20260504234543 71 200 1.0 7.0 0.00 0.00 0.00 36 1006.0
20260504234040 72 248 1.0 9.0 0.00 0.00 0.00 36 1006.0
20260504233541 72 173 4.0 9.0 0.00 0.00 0.00 35 1005.9
20260504233042 72 255 3.0 10.0 0.00 0.00 0.00 34 1005.8
20260504232640 73 263 1.0 9.0 0.00 0.00 0.00 34 1005.8
20260504232039 73 150 3.0 9.0 0.00 0.00 0.00 33 1005.8
20260504231539 73 261 2.0 12.0 0.00 0.00 0.00 33 1005.8
20260504231039 74 237 3.0 12.0 0.00 0.00 0.00 33 1005.8
20260504230538 74 281 2.0 7.0 0.00 0.00 0.00 33 1005.9
20260504230040 74 13 2.0 11.0 0.00 0.00 0.00 33 1005.7
20260504225538 74 180 4.0 10.0 0.00 0.00 0.00 32 1005.8
20260504225037 74 195 2.0 7.0 0.00 0.00 0.00 32 1005.7
20260504224537 75 202 0.0 15.0 0.00 0.00 0.00 32 1005.7
20260504224138 75 228 3.0 15.0 0.00 0.00 0.00 31 1005.8
20260504223537 75 146 1.0 7.0 0.00 0.00 0.00 31 1005.8
20260504223054 75 228 3.0 12.0 0.00 0.00 0.00 32 1005.7
20260504222535 75 231 3.0 12.0 0.00 0.00 0.00 31 1005.8
20260504222035 75 162 3.0 11.0 0.00 0.00 0.00 31 1005.8
20260504221535 76 313 1.0 8.0 0.00 0.00 0.00 32 1005.8
20260504221035 76 188 3.0 10.0 0.00 0.00 0.00 32 1005.8
20260504220534 76 112 3.0 13.0 0.00 0.00 0.00 32 1005.9
20260504220034 76 238 6.0 13.0 0.00 0.00 0.00 31 1005.8
20260504215534 76 181 4.0 10.0 0.00 0.00 0.00 30 1005.7
20260504215036 76 220 3.0 12.0 0.00 0.00 0.00 30 1005.7
20260504214534 76 196 8.0 13.0 0.00 0.00 0.00 28 1005.7
20260504214036 76 215 1.0 11.0 0.00 0.00 0.00 28 1005.7
20260504213532 76 244 4.0 14.0 0.00 0.00 0.00 28 1005.7
20260504213031 75 282 4.0 15.0 0.00 0.00 0.00 29 1005.7
20260504212532 75 288 8.0 22.0 0.00 0.00 0.00 28 1005.8
20260504212031 75 226 11.0 22.0 0.00 0.00 0.00 28 1005.8
20260504211539 75 223 8.0 17.0 0.00 0.00 0.00 29 1005.8
20260504211030 75 134 5.0 14.0 0.00 0.00 0.00 29 1005.9
20260504210531 75 288 5.0 18.0 0.00 0.00 0.00 29 1006.0
20260504210028 75 202 8.0 18.0 0.00 0.00 0.00 28 1006.1
20260504205530 76 229 8.0 18.0 0.00 0.00 0.00 27 1006.1
20260504205026 76 246 6.0 18.0 0.00 0.00 0.00 29 1006.2
20260504204525 76 264 7.0 16.0 0.00 0.00 0.00 28 1006.2
20260504204025 76 250 4.0 18.0 0.00 0.00 0.00 31 1006.4
20260504203524 76 271 6.0 18.0 0.00 0.00 0.00 30 1006.5
20260504203024 76 260 5.0 15.0 0.00 0.00 0.00 32 1006.5
20260504202522 76 259 4.0 13.0 0.00 0.00 0.00 30 1006.5
20260504202021 76 178 7.0 13.0 0.00 0.00 0.00 30 1006.6
20260504201520 76 281 6.0 16.0 0.00 0.00 0.00 29 1006.7
20260504201019 75 239 4.0 18.0 0.00 0.00 0.00 29 1006.7
20260504200519 76 269 6.0 17.0 0.00 0.00 0.00 30 1006.8
20260504200018 76 202 5.0 17.0 0.00 0.00 0.00 30 1006.9
20260504195520 75 204 5.0 17.0 0.00 0.00 0.00 30 1007.0
20260504195015 75 242 5.0 14.0 0.00 0.00 0.00 33 1007.1
20260504194515 75 263 8.0 17.0 0.00 0.00 0.00 32 1007.0
20260504194014 75 207 2.0 19.0 0.00 0.00 0.00 32 1007.2
20260504193514 75 194 10.0 19.0 0.00 0.00 0.00 31 1007.3
20260504193014 75 294 3.0 13.0 0.00 0.00 0.00 31 1007.3
20260504192513 75 252 8.0 15.0 0.00 0.00 0.00 31 1007.3
20260504192013 74 223 8.0 19.0 0.00 0.00 0.00 32 1007.4
20260504191511 74 281 8.0 19.0 0.00 0.00 0.00 32 1007.5
20260504191013 74 277 9.0 16.0 0.00 0.00 0.00 33 1007.5
20260504190511 74 211 10.0 20.0 0.00 0.00 0.00 31 1007.6
20260504190010 74 247 10.0 23.0 0.00 0.00 0.00 32 1007.6
20260504185510 75 178 7.0 16.0 0.00 0.00 0.00 31 1007.7
20260504185008 75 224 9.0 17.0 0.00 0.00 0.00 32 1007.7
20260504184507 75 226 6.0 16.0 0.00 0.00 0.00 31 1007.6
20260504184006 74 153 5.0 16.0 0.00 0.00 0.00 34 1007.7
20260504183505 74 244 6.0 16.0 0.00 0.00 0.00 34 1007.8
20260504183008 74 258 6.0 17.0 0.00 0.00 0.00 34 1007.8
20260504182503 73 240 9.0 17.0 0.00 0.00 0.00 33 1007.8
20260504182003 73 213 8.0 17.0 0.00 0.00 0.00 35 1008.0
20260504181502 73 273 8.0 17.0 0.00 0.00 0.00 33 1007.9
20260504181002 73 271 10.0 16.0 0.00 0.00 0.00 33 1008.0
20260504180504 73 259 3.0 15.0 0.00 0.00 0.00 35 1008.0
20260504180100 73 223 8.0 15.0 0.00 0.00 0.00 33 1008.1
20260504175559 73 224 5.0 14.0 0.00 0.00 0.00 34 1008.2
20260504175058 73 230 7.0 14.0 0.00 0.00 0.00 34 1008.2
20260504174558 72 309 3.0 15.0 0.00 0.00 0.00 34 1008.3
20260504174056 72 138 4.0 16.0 0.00 0.00 0.00 38 1008.2
20260504173558 72 240 5.0 18.0 0.00 0.00 0.00 37 1008.3
20260504173057 72 264 2.0 20.0 0.00 0.00 0.00 36 1008.3
20260504172554 72 307 6.0 20.0 0.00 0.00 0.00 35 1008.3
20260504172054 71 234 6.0 16.0 0.00 0.00 0.00 37 1008.4
20260504171551 71 297 7.0 17.0 0.00 0.00 0.00 37 1008.5
20260504171051 71 284 6.0 17.0 0.00 0.00 0.00 37 1008.6
20260504170553 70 257 7.0 15.0 0.00 0.00 0.00 37 1008.7
20260504151029 65 197 6.0 18.0 0.00 0.00 0.00 39 1010.3
20260504150529 65 277 8.0 18.0 0.00 0.00 0.00 39 1010.2
20260504141013 59 259 5.0 16.0 0.00 0.00 0.00 43 1010.9
20260504140517 60 203 8.0 16.0 0.00 0.00 0.00 42 1011.0
20260504130558 54 200 5.0 10.0 0.00 0.00 0.00 52 1011.5
20260504110537 39 243 0.0 0.0 0.00 0.00 0.00 82 1011.9
20260504100535 38 246 0.0 0.0 0.00 0.00 0.00 79 1011.6
20260504081526 40 244 0.0 0.0 0.00 0.00 0.00 76 1012.0
20260504081028 40 244 0.0 0.0 0.00 0.00 0.00 76 1011.9
20260504080525 40 244 0.0 0.0 0.00 0.00 0.00 76 1011.9